AO-07 1 07530U 74089B 21315.57474965 -.00000026 00000-0 12054-3 0 9996 2 07530 101.8759 290.0237 0012475 98.9063 13.2029 12.53651258150163 UO-11 1 14781U 84021B 21315.58712882 .00000245 00000-0 35946-4 0 9991 2 14781 97.6020 308.2541 0007520 326.8585 33.2158 14.83363200 7741 LO-19 1 20442U 90005G 21315.81506624 .00000031 00000-0 27853-4 0 9993 2 20442 98.7621 272.7551 0012857 88.0554 272.2101 14.33005873661999 HUBBLE 1 20580U 90037B 21315.35094523 .00000880 00000-0 42047-4 0 9994 2 20580 28.4689 172.9887 0002591 202.2859 320.5363 15.09835176533212 MET-2/21 1 22782U 93055A 21315.57843023 -.00000003 00000-0 -16045-4 0 9992 2 22782 82.5506 187.1551 0021297 237.7229 185.5655 13.83841021423870 AO-27 1 22825U 93061C 21315.65183629 .00000006 00000-0 20145-4 0 9992 2 22825 98.9101 336.8296 0007895 332.6604 27.4160 14.30131152467298 IO-26 1 22826U 93061D 21315.58728946 .00000013 00000-0 22944-4 0 9999 2 22826 98.9043 336.6591 0008234 318.5928 41.4629 14.30472145467263 FO-29 1 24278U 96046B 21315.74534404 -.00000060 00000-0 -28070-4 0 9990 2 24278 98.5484 4.0845 0351138 127.8863 235.4586 13.53107583246416 NOAA-15 1 25338U 98030A 21315.99014488 .00000041 00000-0 35492-4 0 9998 2 25338 98.6694 343.1065 0009942 205.9676 154.1007 14.26069251222275 GO-32 1 25397U 98043D 21315.56896861 .00000019 00000-0 28115-4 0 9992 2 25397 98.7883 260.8181 0001968 49.2892 310.8457 14.23721280212648 ISS 1 25544U 98067A 21316.06126698 -.00014225 00000-0 -25440-3 0 9995 2 25544 51.6431 331.5323 0005112 189.9357 282.9080 15.48550182311512 NO-44 1 26931U 01043C 21315.54824817 .00000015 00000-0 37436-4 0 9993 2 26931 67.0511 260.8084 0005790 276.9771 83.0672 14.30642639 50392 SO-50 1 27607U 02058C 21315.55201598 .00000218 00000-0 51441-4 0 9994 2 27607 64.5553 248.4961 0059001 339.9287 19.9495 14.75828585 16425 CO-55 1 27844U 03031E 21315.57177489 .00000097 00000-0 63031-4 0 9995 2 27844 98.6814 321.5615 0010166 19.0943 341.0614 14.22348991952936 CO-57 1 27848U 03031J 21315.82003900 .00000077 00000-0 54859-4 0 9999 2 27848 98.6866 322.3593 0010270 31.5285 328.6506 14.21920823952788 RS-22 1 27939U 03042A 21315.70744071 .00000275 00000-0 57678-4 0 9992 2 27939 98.1626 91.9639 0013241 169.7336 190.4146 14.67058955969118 NOAA-18 1 28654U 05018A 21315.91207291 .00000101 00000-0 78652-4 0 9996 2 28654 98.9781 21.2459 0013697 222.9753 137.0350 14.12656112849355 CO-58 1 28895U 05043F 21315.44464880 .00000312 00000-0 68385-4 0 9994 2 28895 98.0794 85.6537 0017981 106.8421 253.4755 14.64003396855514 Falconsat-3 1 30776U 07006E 21315.24006476 .00009383 00000-0 20878-3 0 9998 2 30776 35.4330 235.6546 0002848 215.8094 144.2444 15.42894848815779 CO-65 1 32785U 08021C 21315.45520951 .00000574 00000-0 66765-4 0 9999 2 32785 97.6300 288.7418 0011589 232.3001 127.7167 14.88887735734111 AAUSAT2 1 32788U 08021F 21315.53247701 .00001586 00000-0 14635-3 0 9992 2 32788 97.5168 304.1353 0012821 130.1202 230.1145 14.95933479735845 DO-64 1 32789U 08021G 21315.59162739 .00002743 00000-0 17315-3 0 9990 2 32789 97.3635 345.2557 0011352 5.0055 355.1286 15.09843740739024 CO-66 1 32791U 08021J 21314.94933553 .00000942 00000-0 99011-4 0 9994 2 32791 97.5877 294.0108 0012608 191.8168 168.2757 14.91641597734616 RS-30 1 32953U 08025A 21315.75329926 .00000021 00000-0 80971-4 0 9994 2 32953 82.5022 319.3235 0019889 19.4683 340.7156 12.43105706611288 PRISM 1 33493U 09002B 21315.49802318 .00000838 00000-0 76309-4 0 9998 2 33493 98.2082 285.3051 0014689 155.0906 205.1027 14.98070038696335 NOAA-19 1 33591U 09005A 21316.03135447 .00000037 00000-0 45083-4 0 9999 2 33591 99.1738 340.3301 0014825 79.5286 280.7555 14.12507499657755 SRMSAT 1 37841U 11058D 21315.76358424 .00000326 00000-0 33957-4 0 9991 2 37841 19.9707 130.7153 0011892 112.1532 321.9683 14.10711584520689 HRBE 1 37855U 11061F 21315.57709620 .00004528 00000-0 21843-3 0 9995 2 37855 101.7246 315.4755 0163874 352.9188 6.9712 15.08678226548351 RS-40 1 38735U 12041C 21315.53704841 .00000021 00000-0 77971-4 0 9996 2 38735 82.4812 41.3748 0018062 124.2131 236.0658 12.42583800421450 ZACUBE-1 1 39417U 13066B 21315.47797309 .00000682 00000-0 90561-4 0 9999 2 39417 97.6103 292.3230 0059502 40.3272 320.2332 14.81670431430841 Delfi-N3xt 1 39428U 13066N 21315.56853871 .00000746 00000-0 12498-3 0 9991 2 39428 97.7942 254.7246 0117842 254.0108 104.8091 14.68247796426558 GOMX-1 1 39430U 13066Q 21315.70910525 .00000893 00000-0 16871-3 0 9992 2 39430 97.8126 230.3084 0150933 11.5731 348.8875 14.59738094424523 LO-74 1 39440U 13066AA 21315.46289162 .00000476 00000-0 71941-4 0 9999 2 39440 97.6965 277.7065 0080923 118.0635 242.8788 14.76382390428112 AO-73 1 39444U 13066AE 21315.50581393 .00000829 00000-0 10639-3 0 9997 2 39444 97.5999 294.7359 0058300 29.9507 330.5021 14.82610601429223 SPROUT 1 39770U 14029E 21315.75044426 .00002859 00000-0 31045-3 0 9996 2 39770 97.9290 67.0283 0010156 85.6560 274.5811 14.88891830405257 DTUSAT-2 1 40030U 14033W 21315.78573009 .00000653 00000-0 75054-4 0 9998 2 40030 97.9219 243.0311 0013074 54.2150 306.0280 14.89172028401750 EO-80 1 40032U 14033Y 21315.55136319 .00000761 00000-0 86589-4 0 9999 2 40032 97.9223 242.8056 0013016 55.8011 304.4438 14.89133747401188 HODOYOSHI-1 1 40299U 14070B 21315.82510569 .00001938 00000-0 79936-4 0 9993 2 40299 97.2719 25.3347 0012664 179.9838 317.5845 15.25165612389871 FIREBIRD FU3 1 40377U 15003B 21315.77847505 .00004190 00000-0 14785-3 0 9997 2 40377 99.1144 128.2086 0114170 39.1260 321.8158 15.24015221375223 FIREBIRD FU4 1 40378U 15003C 21315.42122150 .00004327 00000-0 15221-3 0 9990 2 40378 99.1148 127.9416 0114202 40.0686 320.8900 15.24078319375164 GRIFEX 1 40379U 15003D 21315.73980661 .00003466 00000-0 13740-3 0 9991 2 40379 99.1139 116.3354 0126148 74.7683 286.7453 15.19245597374543 NO-84 1 40654U 15025D 21313.39112687 .00169183 21496-4 48195-3 0 2334 2 40654 54.9688 70.0370 0041236 90.5983 269.9540 15.91495693 29927 XW-2A 1 40903U 15049E 21315.82213758 .00006709 00000-0 13500-3 0 9997 2 40903 97.2171 9.8259 0011491 188.2204 282.3701 15.46869163345564 XW-2C 1 40906U 15049H 21315.86480506 .00002182 00000-0 11294-3 0 9990 2 40906 97.4905 316.4509 0015638 40.9290 76.7167 15.17186797339911 XW-2D 1 40907U 15049J 21315.82628650 .00002224 00000-0 11386-3 0 9990 2 40907 97.4902 316.2638 0014925 37.8072 83.8566 15.17565687339945 LILACSAT-2 1 40908U 15049K 21315.81189934 .00001128 00000-0 64333-4 0 9990 2 40908 97.5117 313.8745 0017152 54.1469 24.1801 15.14699013339537 XW-2E 1 40909U 15049L 21315.85997895 .00003478 00000-0 16302-3 0 9990 2 40909 97.4682 320.4910 0013599 23.9814 96.0229 15.20281766340321 XW-2F 1 40910U 15049M 21315.84612448 .00003393 00000-0 16139-3 0 9993 2 40910 97.4746 319.5691 0014702 23.3808 97.2226 15.19777332340106 XW-2B 1 40911U 15049N 21315.83762911 .00002152 00000-0 11059-3 0 9992 2 40911 97.4900 316.9330 0014849 38.8922 84.0686 15.17476325339838 DCBB 1 40912U 15049P 21315.85698125 .00003854 00000-0 16942-3 0 9996 2 40912 97.4445 323.9640 0013779 353.7067 127.9153 15.22419374340616 TW-1A 1 40928U 15051D 21315.83779140 .00010356 00000-0 19736-3 0 9990 2 40928 97.0662 337.3155 0010897 107.8294 16.8669 15.48295036344479 IO-86 1 40931U 15052B 21314.49650104 .00000870 00000-0 31993-4 0 9994 2 40931 5.9977 290.8412 0013644 309.6632 50.2338 14.76703938330925 ATHENOXAT-1 1 41168U 15077C 21315.24081985 .00005439 00000-0 23418-3 0 9991 2 41168 14.9893 261.2028 0010493 61.8304 337.5867 15.16635500327098 ChubuSat-2 1 41338U 16012B 21315.73880493 .00000709 00000-0 47861-4 0 9999 2 41338 31.0038 329.2438 0013638 153.7377 206.3952 15.00688056314746 ChubuSat-3 1 41339U 16012C 21315.74786440 .00000869 00000-0 60009-4 0 9994 2 41339 31.0124 326.2706 0013512 163.2930 196.8140 15.00824106314740 Horyu-4 1 41340U 16012D 21315.68567657 .00001169 00000-0 80050-4 0 9998 2 41340 31.0053 308.3527 0013799 195.3196 164.7023 15.02154474314944 e-st@r-II 1 41459U 16025D 21315.86994595 .00004336 00000-0 20983-3 0 9995 2 41459 98.1625 101.1486 0156001 285.4965 72.9080 15.09087020304644 AAUSAT4 1 41460U 16025E 21315.64528853 .00006498 00000-0 29423-3 0 9992 2 41460 98.1596 105.5709 0141927 267.6469 90.8492 15.12651187304956 LO-87 1 41557U 16033B 21315.76609529 .00004485 00000-0 15453-3 0 9993 2 41557 97.3933 48.9554 0014044 74.3253 43.4854 15.30448062304053 NuSat2 1 41558U 16033C 21315.76131502 .00004683 00000-0 15104-3 0 9998 2 41558 97.4074 53.4806 0012986 67.0673 53.6306 15.32575272304275 Lapan A3 1 41603U 16040E 21315.72553068 .00000522 00000-0 27112-4 0 9999 2 41603 97.2380 356.9240 0012533 198.7378 300.8380 15.20164585298953 Pratham 1 41783U 16059A 21315.35807697 .00000132 00000-0 34332-4 0 9996 2 41783 97.9462 0.2927 0034419 140.9286 219.4412 14.63188424273739 TY-1 1 41844U 16066D 21315.86754896 .00002744 00000-0 10806-3 0 9990 2 41844 97.3974 324.5976 0013911 345.5491 134.4602 15.26391687278380 CAS-2T 1 41847U 16066G 21315.75559694 .00000279 00000-0 51242-4 0 9991 2 41847 98.5834 15.3668 0365707 140.4769 222.3709 14.38281798263053 EO-88 1 42017U 17008BX 21315.45096089 .00004489 00000-0 16026-3 0 9996 2 42017 97.3002 20.3816 0004445 318.7078 41.3826 15.29358984263715 CAS-4B 1 42759U 17034B 21315.84622391 .00001354 00000-0 93913-4 0 9991 2 42759 43.0163 90.6049 0008581 356.5386 134.8120 15.10533481243438 CAS-4A 1 42761U 17034D 21315.75771054 .00001311 00000-0 91129-4 0 9995 2 42761 43.0166 90.0390 0008955 358.2902 106.7401 15.10619361243426 NIUSat 1 42766U 17036B 21315.55178472 .00002418 00000-0 10415-3 0 9992 2 42766 97.2331 356.3298 0015323 23.8043 336.3900 15.23420381243600 Aalto 1 1 42775U 17036L 21315.60034232 .00002019 00000-0 87949-4 0 9997 2 42775 97.2296 356.5396 0013882 23.6031 336.5841 15.23242506243599 URSA MAIOR 1 42776U 17036M 21315.57494266 .00002210 00000-0 95067-4 0 9994 2 42776 97.2309 357.0709 0013619 22.9594 337.2249 15.23566565243610 Max Valier Sat 1 42778U 17036P 21315.65349782 .00002304 00000-0 97024-4 0 9996 2 42778 97.2377 359.3460 0012164 25.2095 334.9734 15.24276554243702 Pegasus 1 42784U 17036V 21315.56997057 .00002870 00000-0 11675-3 0 9992 2 42784 97.2326 359.8348 0011854 28.1391 332.0486 15.25247719243771 NUDATSat 1 42787U 17036Y 21315.89508944 .00006015 00000-0 22454-3 0 9996 2 42787 97.2364 3.0880 0010616 18.9398 341.2228 15.27697020243833 SUCHAI 1 1 42788U 17036Z 21315.55131354 .00003694 00000-0 14518-3 0 9999 2 42788 97.2336 1.0129 0011223 25.3084 334.8703 15.26232648243911 SKCUBE 1 42789U 17036AA 21315.54341988 .00003375 00000-0 13427-3 0 9999 2 42789 97.2331 0.6408 0011155 26.1500 334.0300 15.25888356243814 VZLUSAT 1 1 42790U 17036AB 21315.36834377 .00004818 00000-0 18076-3 0 9998 2 42790 97.2363 2.5615 0010248 21.9043 338.2633 15.27636379243902 VENTA 1 1 42791U 17036AC 21315.59790005 .00002922 00000-0 11709-3 0 9993 2 42791 97.2327 0.6846 0010889 26.6850 333.4947 15.25753689243814 Robusta 1B 1 42792U 17036AD 21315.55288406 .00003522 00000-0 13880-3 0 9996 2 42792 97.2332 1.0913 0010776 26.4015 333.7771 15.26177159243852 D-SAT 1 42794U 17036AF 21315.60197513 .00000711 00000-0 65568-4 0 9990 2 42794 97.4565 327.6524 0126667 94.0614 267.5096 14.91768038238998 TechnoSat 1 42829U 17042E 21315.79659648 .00000249 00000-0 30067-4 0 9990 2 42829 97.4451 177.3312 0014705 21.1642 339.0182 14.91399647235643 QIKCOM-1 1 42983U 98067NF 21315.38024269 .00018590 00000-0 14985-3 0 9995 2 42983 51.6341 231.0290 0003654 161.2142 198.8991 15.70946437230466 AO-91 1 43017U 17073E 21315.47975462 .00001061 00000-0 86292-4 0 9998 2 43017 97.6926 213.5457 0253521 180.1647 179.9525 14.79938445214861 EcAMSat 1 43019U 98067NG 21315.80374687 .00193222 27450-4 31593-3 0 9997 2 43019 51.6345 173.5600 0005035 206.6176 153.4577 16.02824377313588 PICSAT 1 43132U 18004X 21315.57462979 .00003877 00000-0 14964-3 0 9999 2 43132 97.3968 28.7691 0009958 56.2279 303.9907 15.26836518213127 AO-92 1 43137U 18004AC 21315.71614116 .00002912 00000-0 11580-3 0 9992 2 43137 97.3939 28.1954 0009859 58.3107 301.9091 15.26043022213109 TianYi 2 1 43155U 18008A 21315.85077023 .00002989 00000-0 17239-3 0 9992 2 43155 97.3857 16.2924 0017194 173.8162 314.5176 15.12991577210358 Zhou Enlai 1 43156U 18008B 21315.82425207 .00002483 00000-0 14546-3 0 9998 2 43156 97.3895 16.1085 0014171 172.7758 326.9595 15.12632665210283 TianYi 6 1 43158U 18008D 21315.75647363 .00002349 00000-0 14030-3 0 9990 2 43158 97.3853 14.3995 0012995 172.9174 313.3018 15.11980694210192 S-Net D 1 43186U 18014G 21315.46249835 .00000357 00000-0 35823-4 0 9999 2 43186 97.6667 220.3197 0010059 314.3834 45.6564 14.97222038206297 S-Net B 1 43187U 18014H 21315.46247473 .00000361 00000-0 36151-4 0 9996 2 43187 97.6664 220.2806 0010050 314.2780 45.7616 14.97221394206294 S-Net A 1 43188U 18014J 21315.46263645 .00000361 00000-0 36130-4 0 9993 2 43188 97.6668 220.3323 0010049 314.4720 45.5679 14.97220277206294 S-Net C 1 43189U 18014K 21315.52997824 .00000373 00000-0 37246-4 0 9996 2 43189 97.6663 220.3381 0010035 313.9058 46.1334 14.97219633204856 FMN 1 1 43192U 18015A 21315.82559191 .00008485 00000-0 29545-3 0 9999 2 43192 97.5086 92.2569 0014899 81.9190 58.5338 15.29827154210108 Shaonian Xing 1 43199U 18015H 21315.85044284 .00005819 00000-0 21002-3 0 9999 2 43199 97.4876 88.8504 0016642 91.2008 33.3092 15.28770901210150 SurfSat 1 43614U 18070B 21315.17598677 .00008253 00000-0 17895-3 0 9997 2 43614 93.0275 7.2112 0014932 143.8397 216.3873 15.44294863177295 CP-7 DAVE 1 43615U 18070C 21315.41888681 .00007911 00000-0 17376-3 0 9996 2 43615 93.0280 7.2470 0015131 143.5117 216.7174 15.43912340177315 ELFIN-B 1 43616U 18070D 21315.11241356 .00014011 00000-0 26506-3 0 9990 2 43616 93.0232 7.5319 0014583 140.1316 220.1017 15.48246439177434 ELFIN-A 1 43617U 18070E 21315.60015513 .00014074 00000-0 25972-3 0 9994 2 43617 93.0286 8.7359 0014020 135.4596 224.7793 15.48969338177536 CubeBel-1 1 43666U 18083E 21315.74761694 .00003146 00000-0 14865-3 0 9992 2 43666 97.4445 342.2300 0014987 21.9377 89.1899 15.20051435168388 Changshagaoxin 1 43669U 18083H 21315.85352019 .00003105 00000-0 15235-3 0 9991 2 43669 97.4363 338.9618 0010997 21.1340 64.2812 15.18792325168255 Ten-Koh 1 43677U 18084G 21315.81020419 .00000423 00000-0 49143-4 0 9999 2 43677 97.9388 79.3936 0014589 268.9322 91.0224 14.90586217165259 PO-101 1 43678U 18084H 21315.88445173 .00000209 00000-0 26443-4 0 9995 2 43678 97.9433 82.0968 0008565 287.8151 72.2110 14.91830586165419 IRVINE 01 1 43693U 18088D 21315.79964766 .00009644 00000-0 35542-3 0 9991 2 43693 85.0313 96.8974 0014905 193.8338 166.2501 15.27553336166918 QO-100 1 43700U 18090A 21315.56022556 .00000136 00000-0 00000-0 0 9995 2 43700 0.0030 102.4397 0002194 146.9177 29.0443 1.00271984 10843 Reaktor Hello World 1 43743U 18096AA 21315.22299772 .00003933 00000-0 13839-3 0 9992 2 43743 97.3746 31.5987 0018204 114.2133 246.1012 15.29771605164563 MinXSS-2 1 43758U 18099A 21315.57047291 .00000382 00000-0 38818-4 0 9996 2 43758 97.6528 23.6154 0014032 276.9359 83.0266 14.96306261160514 AO-95 1 43770U 18099N 21315.52409808 .00000868 00000-0 83326-4 0 9994 2 43770 97.6500 22.3578 0013024 286.9881 72.9913 14.95534111160438 RANGE-B 1 43772U 18099Q 21315.45350369 .00000898 00000-0 85329-4 0 9993 2 43772 97.6594 23.5244 0012712 272.7813 87.1953 14.95899355160433 RANGE-A 1 43773U 18099R 21315.47557154 .00000932 00000-0 89443-4 0 9997 2 43773 97.6434 21.4789 0011868 273.3422 86.6442 14.95373735160416 MOVE-II 1 43780U 18099Y 21315.15349199 .00001473 00000-0 13532-3 0 9994 2 43780 97.6531 22.7163 0011720 284.8618 75.1305 14.96271237160408 SNUSat 2 1 43782U 18099AA 21315.46684880 .00001084 00000-0 10226-3 0 9994 2 43782 97.6502 22.6941 0011138 271.3162 88.6783 14.95761490160446 SnugLite 1 43784U 18099AC 21315.46215877 .00001020 00000-0 96169-4 0 9993 2 43784 97.6463 22.3784 0013483 279.7678 80.2021 14.95902360160463 ITASat 1 1 43786U 18099AE 21315.41557823 .00001013 00000-0 95803-4 0 9996 2 43786 97.6527 23.0319 0013469 280.0420 79.9281 14.95803784160454 EAGLET 1 1 43790U 18099AJ 21315.75082170 .00000822 00000-0 78088-4 0 9999 2 43790 97.6518 23.8287 0011808 283.0327 76.9576 14.96126795160236 ESEO 1 43792U 18099AL 21315.42667895 .00000067 00000-0 11106-4 0 9997 2 43792 97.6479 22.9796 0011723 281.6601 78.3305 14.95835221160230 CSIM 1 43793U 18099AM 21315.49145559 .00001326 00000-0 12028-3 0 9995 2 43793 97.6528 23.7125 0011204 275.1361 84.8582 14.96942291160265 Astrocast 0.1 1 43798U 18099AS 21315.47593079 .00001327 00000-0 12199-3 0 9992 2 43798 97.6524 23.8231 0010732 259.7750 100.2261 14.96413611160503 JO-97 1 43803U 18099AX 21315.15280735 .00001015 00000-0 95278-4 0 9990 2 43803 97.6489 22.5139 0013389 280.7701 79.2013 14.96095687160424 Suomi 100 1 43804U 18099AY 21315.56288440 .00000408 00000-0 41352-4 0 9996 2 43804 97.6485 22.8679 0013596 279.5261 80.4424 14.96055214160499 Al Farabi 2 1 43805U 18099AZ 21315.47319842 .00001381 00000-0 12699-3 0 9990 2 43805 97.6488 23.0834 0013450 277.5270 82.4425 14.96332975160491 CHOMPTT 1 43855U 18104G 21315.70642004 .00002360 00000-0 93642-4 0 9993 2 43855 85.0397 195.8826 0015554 330.7322 29.3049 15.24675319161523 ISAT 1 43879U 18111D 21315.87443552 .00001308 00000-0 11893-3 0 9990 2 43879 97.6728 220.4469 0012479 334.8958 25.1639 14.96890091155107 UWE-4 1 43880U 18111E 21315.50551894 .00000946 00000-0 86897-4 0 9995 2 43880 97.6775 220.6498 0011662 339.9993 20.0770 14.97118564157081 Sparrow 1 43881U 18111F 21315.47029236 .00000994 00000-0 90884-4 0 9996 2 43881 97.6773 220.7779 0011772 334.6857 25.3787 14.97179757157083 Lume 1 1 43908U 18111AJ 21315.55303105 .00002976 00000-0 11422-3 0 9997 2 43908 97.2139 205.4551 0021442 126.1238 234.1991 15.27020303160116 FO-98 1 43933U 19003B 21315.59427480 .00023633 00000-0 74312-3 0 9993 2 43933 97.1687 351.8507 0012586 221.0373 138.9924 15.32889809156596 FO-99 1 43937U 19003F 21315.39014276 .00003558 00000-0 13741-3 0 9993 2 43937 97.1603 352.6237 0021765 206.9059 153.1053 15.26673808156673 MYSat 1 1 44045U 18092F 21315.56101463 .00008785 00000-0 20930-3 0 9990 2 44045 51.6374 67.2786 0010001 21.4437 338.6965 15.42357708154141 AstroCast 0.2 1 44083U 19018F 21315.68760784 .00003878 00000-0 16544-3 0 9995 2 44083 97.3553 13.9277 0012835 168.6163 191.5367 15.23432625145300 AISTechSat 3 1 44103U 19018AB 21315.71795845 .00003189 00000-0 13150-3 0 9993 2 44103 97.3426 14.3990 0013035 177.6716 301.4673 15.24717951145442 AISat 1 1 44104U 19018AC 21315.46672387 .00003050 00000-0 94513-4 0 9991 2 44104 97.4148 33.0925 0055394 190.1799 169.8326 15.32741361146180 Prox-1 1 44339U 19036A 21315.47493519 .00001438 00000-0 28586-3 0 9994 2 44339 23.9993 128.0501 0011091 347.9343 12.0882 14.53903552126582 Oculus-ASR 1 44348U 19036K 21315.16238454 .00032349 00000-0 40929-3 0 9995 2 44348 28.5084 234.2184 0307976 60.5268 302.5685 15.18020761131178 Armadillo 1 44352U 19036P 21315.36945083 .00050119 00000-0 54966-3 0 9996 2 44352 28.5249 198.2943 0263318 116.6731 246.1080 15.29656320131504 NO-104 1 44354U 19036R 21315.42742146 .00030048 00000-0 36811-3 0 9998 2 44354 28.5237 223.3658 0301996 75.6779 287.7146 15.19846571131307 NO-103 1 44355U 19036S 21313.27198883 .00074152 -49863-5 63285-3 0 9998 2 44355 28.5233 164.2984 0210613 171.7953 188.6168 15.44293522131714 Move-IIb 1 44398U 19038N 21315.62695738 .00003764 00000-0 20622-3 0 9992 2 44398 97.6024 279.1952 0024351 157.7435 202.4863 15.14579997130039 SONATE 1 44400U 19038Q 21315.62738675 .00001961 00000-0 11423-3 0 9990 2 44400 97.6085 278.9196 0025160 159.6072 200.6178 15.12949349129985 BeeSat 9 1 44412U 19038AC 21315.63554390 .00002388 00000-0 13479-3 0 9991 2 44412 97.6080 279.3304 0022239 162.4134 197.7872 15.13934666129719 JAISAT-1 1 44419U 19038F 21315.55819905 .00002101 00000-0 11753-3 0 9991 2 44419 97.6084 279.9174 0021215 160.3084 199.8971 15.14418620130055 LightSail-2 1 44420U 19036AC 21315.07330041 .00012333 00000-0 23653-2 0 9996 2 44420 24.0061 99.8774 0017422 1.1246 358.9285 14.61908423124952 Taurus 1 1 44530U 19059C 21315.68283626 .00001333 00000-0 38395-3 0 9994 2 44530 98.5511 47.2857 0014434 62.6981 297.5662 14.46295105114367 Duchifat 3 1 44854U 19089C 21315.34447444 .00001587 00000-0 13213-3 0 9992 2 44854 36.9664 311.8032 0008833 252.2406 107.7267 14.99786218105160 OPS-SAT 1 44878U 19092F 21315.57174527 .00001993 00000-0 10374-3 0 9992 2 44878 97.4762 137.0128 0014187 24.6270 335.5638 15.17117909105136 TO-108 1 44881U 19093C 21315.84254600 .00000300 00000-0 44980-4 0 9990 2 44881 97.9144 32.9881 0015292 168.4014 191.7537 14.81509184102552 FloripaSat 1 1 44885U 19093G 21315.70757192 .00001021 00000-0 13369-3 0 9990 2 44885 97.9170 33.6738 0014749 176.5550 183.5751 14.82464606102585 RS-44 1 44909U 19096E 21315.68863717 .00000002 00000-0 -46046-4 0 9996 2 44909 82.5251 14.9795 0218484 108.8320 253.6613 12.79711243 87700 HO-107 1 45119U 19071J 21315.54670772 .00005381 00000-0 15483-3 0 9999 2 45119 51.6417 42.9880 0011103 99.7947 260.4290 15.37380200 99783 Phoenix 1 45258U 98067RB 21315.71979955 .00020427 00000-0 24081-3 0 9991 2 45258 51.6377 309.9699 0006736 78.0431 282.1317 15.61323295 98171 AztechSat-1 1 45261U 98067RE 21315.18806241 .00236373 31399-4 79128-3 0 9993 2 45261 51.6269 285.9597 0008822 96.4057 263.7954 15.89652489 98476 QARMAN 1 45263U 98067RG 21315.41699711 .00073299 00000-0 50280-3 0 9998 2 45263 51.6349 297.3981 0007993 88.2862 271.9052 15.74002006 98379 Quetzal 1 1 45598U 98067RL 21315.58289952 .00054853 00000-0 45137-3 0 9999 2 45598 51.6362 303.8213 0003403 84.0100 276.1285 15.69841333 87570 BY70-2 1 45857U 20042B 21315.89982404 .00003281 00000-0 46598-3 0 9992 2 45857 97.9751 30.0870 0012360 100.9040 259.3429 14.77560453 73313 UPMSat 2 1 46276U 20061E 21315.48489606 .00001203 00000-0 64594-4 0 9999 2 46276 97.4190 26.2202 0001505 144.8604 215.2729 15.16793883 65829 AmicalSat 1 46287U 20061R 21315.42536816 .00001610 00000-0 10047-3 0 9996 2 46287 97.4742 25.3919 0001787 345.0623 15.0554 15.10891348 65536 SALSAT 1 46495U 20068K 21315.60603841 .00000306 00000-0 26848-4 0 9995 2 46495 97.7041 252.3186 0015006 298.8011 61.1707 15.03660126 61443 BY70-3 1 46839U 20079N 21315.85115828 .00006874 00000-0 20336-3 0 9990 2 46839 97.2268 26.7912 0008134 45.9450 89.5245 15.35186571 56800 SPOC 1 46921U 98067RR 21315.51994231 .00018271 00000-0 23707-3 0 9999 2 46921 51.6401 320.7161 0001118 6.3538 353.7468 15.58896745 57755 Bobcat-1 1 46922U 98067RS 21315.41071576 .00034171 00000-0 36930-3 0 9996 2 46922 51.6413 317.0189 0002304 33.2629 326.8510 15.63278763 57766 Neutron-1 1 46923U 98067RT 21315.48360912 .00019809 00000-0 25772-3 0 9992 2 46923 51.6411 321.2215 0001600 7.7407 352.3610 15.58763002 57786 CAPE 3 1 47309U 21002A 21315.75661944 .00003790 00000-0 17517-3 0 9995 2 47309 60.6831 100.9797 0041647 125.9583 234.5378 15.21547361 45294 AO-109 1 47311U 21002C 21315.58382345 .00002788 00000-0 12949-3 0 9994 2 47311 60.6857 100.1776 0038030 122.3766 238.1011 15.22375697 45263 MiTEE 1 1 47314U 21002F 21315.81940586 .00005877 00000-0 24389-3 0 9993 2 47314 60.6837 96.7089 0039293 114.8966 245.6214 15.24436016 45365 ExoCube 2 1 47319U 21002L 21315.52494123 .00002787 00000-0 13073-3 0 9992 2 47319 60.6848 100.9880 0039030 124.2084 236.2711 15.21995442 45216 UVSQ-SAT 1 47438U 21006AB 21315.43515261 .00001902 00000-0 10939-3 0 9991 2 47438 97.4700 13.9222 0011345 315.5935 44.4386 15.13617302 44285 YUSAT 1 1 47439U 21006AC 21315.69961080 .00002050 00000-0 11744-3 0 9994 2 47439 97.4705 14.1915 0011182 314.8598 45.1724 15.13686570 44321 SOMP 2b 1 47445U 21006AJ 21315.59822014 .00001555 00000-0 90562-4 0 9998 2 47445 97.4673 13.9039 0011091 319.5224 40.5181 15.13430313 44309 IDEASSat 1 47458U 21006AX 21315.55833235 .00001641 00000-0 95763-4 0 9999 2 47458 97.4763 14.1546 0010174 317.9558 42.0892 15.13291246 44296 RSP-01 1 47925U 98067SB 21315.49304583 .00019458 00000-0 27683-3 0 9991 2 47925 51.6418 328.0200 0000538 71.0570 289.0480 15.56369708 37635 TAUSAT-1 1 47926U 98067SC 21315.75612141 .00025905 00000-0 34159-3 0 9993 2 47926 51.6404 325.2646 0000405 109.8043 250.2993 15.58226942 37680 Tsuru 1 47927U 98067SD 21315.52981055 .00018176 00000-0 26519-3 0 9995 2 47927 51.6418 328.2643 0000421 105.3710 254.7328 15.55735486 37637 STARS-EC 1 47928U 98067SE 21315.75824291 .00030077 00000-0 39683-3 0 9999 2 47928 51.6410 326.0300 0004403 337.5584 22.5215 15.58119945 37666 Maya-2 1 47929U 98067SF 21315.46135136 .00018821 00000-0 27424-3 0 9994 2 47929 51.6415 328.5554 0000456 119.4548 240.6488 15.55744392 37584 OPUSAT-II 1 47930U 98067SG 21315.75719661 .00030119 00000-0 38680-3 0 9999 2 47930 51.6413 325.2850 0001462 68.3499 291.7649 15.58845816 37696 GuaraniSat-1 1 47931U 98067SH 21315.33014650 .00018885 00000-0 27484-3 0 9996 2 47931 51.6420 329.1834 0000503 121.5510 238.5531 15.55775516 37607 CubeSX-Sirius-HSE 1 47951U 21022V 21315.91298791 .00001362 00000-0 97222-4 0 9999 2 47951 97.5457 215.0137 0021904 163.8551 262.2266 15.06004468 35243 CubeSX-HSE 1 47952U 21022W 21315.90691171 .00001146 00000-0 82367-4 0 9992 2 47952 97.5440 215.0155 0021817 163.2659 262.9208 15.06040346 35240 KSU-Cubesat 1 47954U 21022Y 21315.54942735 .00001783 00000-0 12548-3 0 9999 2 47954 97.5444 214.7060 0021633 165.7583 194.4259 15.06143473 34919 GRBAlpha 1 47959U 21022AD 21315.71119325 .00001245 00000-0 89128-4 0 9996 2 47959 97.5448 214.8417 0021827 164.4859 280.6432 15.06045855 34031 Orbicraft-Zorkiy 1 47960U 21022AE 21315.83368962 .00001049 00000-0 75669-4 0 9991 2 47960 97.5455 215.0205 0021194 164.2346 282.6427 15.06115604 34749 STECCO 1 47962U 21022AG 21315.73498856 .00003024 00000-0 20370-3 0 9991 2 47962 97.5432 215.1956 0017017 159.9515 284.7090 15.07326206 34054 DO-111 1 47963U 21022AH 21315.43644690 .00003402 00000-0 22240-3 0 9996 2 47963 97.5446 215.1357 0019450 156.8350 203.3759 15.08316208 34041 MO-110 1 47964U 21022AJ 21315.61147902 .00002601 00000-0 17428-3 0 9993 2 47964 97.5438 215.1926 0019950 158.1163 202.0921 15.07604695 34043 FEES 1 48082U 21022AL 21315.67719726 .00003318 00000-0 22329-3 0 9992 2 48082 97.5446 215.1396 0016219 153.9853 206.2193 15.07308116 33752 RamSat 1 48850U 98067SL 21315.52146274 .00012421 00000-0 20500-3 0 9998 2 48850 51.6423 331.9256 0004306 345.7441 14.3427 15.52668495 23331 MO-112 1 48868U 98067SP 21315.56176202 .00028587 00000-0 40995-3 0 9995 2 48868 51.6410 330.6966 0003975 12.0482 348.0604 15.55904743 22133 TUBIN 1 48900U 21059X 21315.86477054 .00001408 00000-0 84589-4 0 9992 2 48900 97.5282 82.6189 0011349 127.4625 350.2082 15.12469170 21015 IT-SPINS 1 49017U 21013G 21315.50548228 .00001553 00000-0 78381-4 0 9999 2 49017 51.6136 359.6116 0006967 352.2494 7.8374 15.23370454 20536 LEDSAT 1 49069U 21073D 21315.78296029 .00000759 00000-0 54086-4 0 9994 2 49069 97.5501 27.9509 0027022 321.7790 38.1522 15.07297749 13030 CUTE 1 49263U 21088D 21315.18439383 .00001097 00000-0 88576-4 0 9999 2 49263 97.6202 22.4123 0020324 95.1716 265.1828 15.01720247 6654 Binar-1 1 49272U 98067SR 21315.36063744 .00012458 00000-0 21794-3 0 9995 2 49272 51.6424 334.5909 0003536 223.5135 136.5576 15.51022540 5675 Maya-3 1 49273U 98067SS 21315.48757148 .00015639 00000-0 26934-3 0 9992 2 49273 51.6423 333.9388 0003141 220.3438 139.7318 15.51249030 5698 Maya-4 1 49274U 98067ST 21315.35965443 .00015277 00000-0 26377-3 0 9997 2 49274 51.6425 334.5845 0003091 217.3952 142.6823 15.51197815 5672 CUAVA-1 1 49275U 98067SU 21315.88379383 .00016490 00000-0 28332-3 0 9999 2 49275 51.6436 331.9470 0002829 234.4484 187.7707 15.51271430 5709 TeikyoSat 4 1 49396U 21102B 21315.74753412 -.00000058 00000-0 00000 0 0 9995 2 49396 97.5675 15.2229 0011884 262.0241 97.9623 15.00264856 409 Z-Sat 1 49399U 21102E 21315.74457944 -.00000060 00000-0 00000 0 0 9992 2 49399 97.5679 15.2282 0017174 241.8282 118.1196 15.01929725 408 KOSEN 1 1 49402U 21102H 21315.74303863 -.00000061 00000-0 00000 0 0 9998 2 49402 97.5620 15.2210 0020874 237.5639 122.3553 15.02799752 409 /EX
